Regional Weather Roundup
Issued by NWS

Home | Current Version | Previous Version | Text Only | Print | Product List | Glossary On
Versions: 1 2 3 4 5 6 7 8 9 10 11 12 13 14 15 16 17 18 19 20 21 22 23 24 25 26 27 28 29 30 31 32 33 34 35 36 37 38 39 40 41 42 43 44 45 46 47 48 49 50
000
ASCA42 TJSJ 280411
RWRPR
PUERTO RICO/U.S. VIRGIN ISLANDS HOURLY WEATHER ROUNDUP
NATIONAL WEATHER SERVICE SAN JUAN PR
1200 AM AST FRI NOV 28 2014

PRZ001-004-280500-
PUERTO RICO

CITY           SKY/WX    TMP DP  RH WIND       PRES   REMARKS
SAN JUAN LMM   CLEAR     75  72  88 CALM      29.97S
CEIBA          PTCLDY    73  70  88 CALM      29.98F
$$

PRZ006-007-280500-
U.S. VIRGIN ISLANDS

CITY           SKY/WX    TMP DP  RH WIND       PRES   REMARKS
CHRISTIANSTED  CLEAR     73  66  78 N5        29.96F
$$

HOURLY WEATHER ROUNDUP FOR THE NEWS MEDIA

CITY           SKY/WX    TMP DP  RH WIND       PRES   REMARKS
MIAMI          CLEAR     63  50  62 NW7       30.21S
ORLANDO        CLEAR     53  36  52 N13       30.29S
NEW YORK       MOCLDY    37  25  61 NW15G23   30.07R WCI  28
NEWARK         PTCLDY    33  24  69 NW10      30.07S WCI  25
CHICAGO        PTCLDY    15   9  76 CALM      30.40R
HARTFORD       CLOUDY    33  31  92 VRB5      29.98S WCI  29
BOSTON         LGT SNOW  31  27  85 NW9       30.01S FOG     WCI  23
DALLAS         CLEAR     42  30  62 SE7       30.37F
PHILADELPHIA   CLEAR     31  24  75 W6        30.13R WCI  25


USA.gov is the U.S. government's official web portal to all federal, state and local government web resources and services.